Location: Santa Cristina
(46.5667°N, 11.7167°E)
Time: 05:49:43
(UTC+00:00)

Cosmos 1937 Rocket - Pass Details

Date: 21 April 2021
Orbit: 747 x 780 km, 74.0° (Epoch: 05 May)

Event Time Altitude Azimuth Distance (km) Brightness Sun altitude
Exits shadow 01:25:30 38° 144° (SE) 1,131 4.2 -24.3°
Maximum altitude 01:26:46 46° 105° (ESE) 999 4.2 -24.2°
Drops below altitude 10° 01:31:40 10° 33° (NNE) 2,274 7.0 -23.7°
Sets 01:34:06 0° 27° (NNE) 3,203 8.1 -23.4°
